GW5237 Weather Reports


Display with metric or nautical units.
time (UTC)temp
F
wind
direction
speed
MPH
gust
MPH
rain 1hr
in
rain 24hr
in
rain mn
in
humidity
%
barometer
mb
20260506003255 67 185 1.0 2.0 0.00 0.00 0.00 70 1016.5
20260506002751 67 202 1.0 2.0 0.00 0.00 0.00 69 1016.7
20260506002248 67 236 2.0 3.0 0.00 0.00 0.00 69 1016.7
20260506001743 68 181 3.0 3.0 0.00 0.00 0.00 68 1016.6
20260506001241 68 214 3.0 4.0 0.00 0.00 0.00 68 1016.6
20260506000738 68 71 2.0 3.0 0.00 0.00 0.00 67 1016.6
20260506000235 69 215 2.0 3.0 0.00 0.00 0.00 67 1016.7
20260505235732 69 206 4.0 6.0 0.00 0.00 0.00 66 1016.5
20260505235230 69 226 4.0 4.0 0.00 0.00 0.00 66 1016.5
20260505234726 69 209 3.0 4.0 0.00 0.00 0.00 66 1016.7
20260505234223 70 182 4.0 7.0 0.00 0.00 0.00 65 1016.7
20260505233720 70 248 7.0 9.0 0.00 0.00 0.00 65 1016.8
20260505233219 71 212 4.0 7.0 0.00 0.00 0.00 64 1016.8
20260505232715 71 177 2.0 3.0 0.00 0.00 0.00 64 1016.5
20260505232213 71 76 2.0 2.0 0.00 0.00 0.00 64 1016.6
20260505231709 71 174 4.0 4.0 0.00 0.00 0.00 63 1016.5
20260505231209 71 160 5.0 13.0 0.00 0.00 0.00 63 1016.8
20260505230706 71 196 6.0 9.0 0.00 0.00 0.00 62 1016.6
20260505230202 72 220 4.0 7.0 0.00 0.00 0.00 62 1016.7
20260505225659 72 33 1.0 1.0 0.00 0.00 0.00 62 1016.7
20260505225156 73 198 7.0 9.0 0.00 0.00 0.00 62 1016.6
20260505224651 73 210 4.0 6.0 0.00 0.00 0.00 61 1016.6
20260505224149 73 175 6.0 7.0 0.00 0.00 0.00 61 1016.7
20260505223647 73 204 6.0 7.0 0.00 0.00 0.00 61 1016.6
20260505223142 73 142 5.0 9.0 0.00 0.00 0.00 60 1016.7
20260505222638 73 205 2.0 3.0 0.00 0.00 0.00 60 1016.6
20260505222135 74 209 4.0 6.0 0.00 0.00 0.00 60 1016.5
20260505221631 74 202 5.0 8.0 0.00 0.00 0.00 59 1016.5
20260505221128 74 208 5.0 7.0 0.00 0.00 0.00 59 1016.4
20260505220626 74 208 6.0 7.0 0.00 0.00 0.00 59 1016.5
20260505220123 75 150 2.0 2.0 0.00 0.00 0.00 59 1016.6
20260505215620 75 107 4.0 7.0 0.00 0.00 0.00 59 1016.4
20260505215118 75 94 2.0 4.0 0.00 0.00 0.00 58 1016.5
20260505214616 75 179 4.0 6.0 0.00 0.00 0.00 58 1016.5
20260505214113 75 119 2.0 3.0 0.00 0.00 0.00 58 1016.5
20260505213611 75 202 8.0 11.0 0.00 0.00 0.00 57 1016.4
20260505213107 76 228 2.0 4.0 0.00 0.00 0.00 56 1016.4
20260505212603 75 231 6.0 7.0 0.00 0.00 0.00 56 1016.3
20260505212101 75 232 6.0 9.0 0.00 0.00 0.00 57 1016.3
20260505211552 75 130 6.0 8.0 0.00 0.00 0.00 58 1016.4
20260505211049 76 209 8.0 11.0 0.00 0.00 0.00 57 1016.4
20260505210545 76 202 8.0 13.0 0.00 0.00 0.00 56 1016.3
20260505210043 76 147 3.0 6.0 0.00 0.00 0.00 56 1016.2
20260505205535 75 213 4.0 9.0 0.00 0.00 0.00 57 1016.3
20260505205032 76 201 6.0 9.0 0.00 0.00 0.00 55 1016.5
20260505204530 76 194 6.0 7.0 0.00 0.00 0.00 55 1016.4
20260505204027 76 102 2.0 2.0 0.00 0.00 0.00 56 1016.4
20260505203523 75 152 3.0 3.0 0.00 0.00 0.00 57 1016.5
20260505203021 76 209 4.0 7.0 0.00 0.00 0.00 55 1016.4
20260505202516 78 183 4.0 6.0 0.00 0.00 0.00 54 1016.4
20260505202012 78 211 8.0 9.0 0.00 0.00 0.00 52 1016.5
20260505201510 77 214 6.0 9.0 0.00 0.00 0.00 54 1016.4
20260505201007 76 145 3.0 4.0 0.00 0.00 0.00 54 1016.5
20260505200505 76 303 2.0 3.0 0.00 0.00 0.00 54 1016.5
20260505200001 78 245 6.0 7.0 0.00 0.00 0.00 51 1016.6
20260505195458 77 103 1.0 2.0 0.00 0.00 0.00 51 1016.7
20260505194955 78 113 5.0 8.0 0.00 0.00 0.00 51 1016.7
20260505194453 78 198 5.0 9.0 0.00 0.00 0.00 50 1016.8
20260505193952 78 172 4.0 7.0 0.00 0.00 0.00 50 1016.7
20260505193450 78 125 5.0 7.0 0.00 0.00 0.00 50 1016.8
20260505192947 78 228 5.0 8.0 0.00 0.00 0.00 50 1017.0
20260505192446 78 186 11.0 16.0 0.00 0.00 0.00 49 1017.2
20260505191943 78 207 2.0 4.0 0.00 0.00 0.00 50 1017.1
20260505191442 79 162 3.0 4.0 0.00 0.00 0.00 49 1017.1
20260505190938 79 187 9.0 10.0 0.00 0.00 0.00 49 1017.1
20260505190433 79 143 4.0 6.0 0.00 0.00 0.00 49 1017.3
20260505185929 80 253 3.0 4.0 0.00 0.00 0.00 49 1017.5
20260505185427 79 156 3.0 4.0 0.00 0.00 0.00 50 1017.3
20260505184922 78 310 9.0 11.0 0.00 0.00 0.00 49 1017.4
20260505184419 78 211 9.0 13.0 0.00 0.00 0.00 49 1017.4
20260505183916 79 222 5.0 7.0 0.00 0.00 0.00 50 1017.5
20260505183413 79 280 3.0 4.0 0.00 0.00 0.00 50 1017.5
20260505182910 79 194 6.0 7.0 0.00 0.00 0.00 50 1017.5
20260505182407 79 197 9.0 10.0 0.00 0.00 0.00 49 1017.4
20260505181903 80 133 3.0 4.0 0.00 0.00 0.00 48 1017.4
20260505181400 79 185 3.0 4.0 0.00 0.00 0.00 51 1017.4
20260505180857 80 193 5.0 8.0 0.00 0.00 0.00 49 1017.4
20260505180353 78 210 1.0 2.0 0.00 0.00 0.00 53 1017.5
20260505175850 78 185 6.0 8.0 0.00 0.00 0.00 53 1017.6
20260505175346 79 181 4.0 4.0 0.00 0.00 0.00 52 1017.4
20260505174843 78 143 2.0 3.0 0.00 0.00 0.00 52 1017.8
20260505174341 78 150 3.0 3.0 0.00 0.00 0.00 52 1017.5
20260505173836 78 72 4.0 7.0 0.00 0.00 0.00 52 1017.5
20260505173332 79 196 10.0 13.0 0.00 0.00 0.00 52 1017.7
20260505172830 80 229 4.0 8.0 0.00 0.00 0.00 51 1017.7
20260505172328 79 168 2.0 2.0 0.00 0.00 0.00 51 1017.6
20260505171827 79 212 3.0 4.0 0.00 0.00 0.00 51 1017.7
20260505171324 79 180 3.0 3.0 0.00 0.00 0.00 51 1017.6
20260505170820 79 90 1.0 2.0 0.00 0.00 0.00 51 1017.5
20260505170318 79 206 5.0 6.0 0.00 0.00 0.00 50 1017.5
20260505165813 78 144 3.0 4.0 0.00 0.00 0.00 50 1017.7
20260505165309 78 140 2.0 2.0 0.00 0.00 0.00 53 1017.5
20260505164804 78 179 8.0 10.0 0.00 0.00 0.00 52 1017.8
20260505164302 77 202 6.0 7.0 0.00 0.00 0.00 52 1017.8
20260505163800 77 71 1.0 1.0 0.00 0.00 0.00 53 1017.7
20260505163258 78 126 4.0 6.0 0.00 0.00 0.00 52 1017.8
20260505162755 78 145 1.0 3.0 0.00 0.00 0.00 52 1017.9
20260505162252 77 197 4.0 7.0 0.00 0.00 0.00 50 1017.9
20260505161749 78 204 6.0 8.0 0.00 0.00 0.00 51 1018.2
20260505161247 79 81 3.0 4.0 0.00 0.00 0.00 50 1018.0
20260505160744 77 117 3.0 4.0 0.00 0.00 0.00 53 1017.9
20260505160242 77 218 4.0 4.0 0.00 0.00 0.00 53 1018.0
20260505153221 76 238 4.0 7.0 0.00 0.00 0.00 54 1018.2
20260505152718 76 72 2.0 3.0 0.00 0.00 0.00 56 1018.5
20260505152214 76 99 1.0 1.0 0.00 0.00 0.00 56 1018.3
20260505151709 76 359 3.0 4.0 0.00 0.00 0.00 57 1018.3
20260505151206 76 197 6.0 8.0 0.00 0.00 0.00 55 1018.5
20260505150657 75 215 2.0 3.0 0.00 0.00 0.00 57 1018.6
20260505150155 75 261 5.0 7.0 0.00 0.00 0.00 57 1018.6
20260505140622 73 250 6.0 7.0 0.00 0.00 0.00 61 1018.6
20260505140120 73 198 4.0 4.0 0.00 0.00 0.00 61 1018.4
20260505125036 69 149 1.0 1.0 0.00 0.00 0.00 72 1018.3
20260505124532 69 205 3.0 4.0 0.00 0.00 0.00 72 1018.6
20260505124029 68 92 1.0 1.0 0.00 0.00 0.00 73 1018.5
20260505123525 68 180 1.0 2.0 0.00 0.00 0.00 74 1018.5
20260505123022 67 122 2.0 2.0 0.00 0.00 0.00 74 1018.4
20260505122519 66 171 2.0 2.0 0.00 0.00 0.00 76 1018.4
20260505122016 65 198 3.0 4.0 0.00 0.00 0.00 76 1018.4
20260505121512 65 210 1.0 2.0 0.00 0.00 0.00 77 1018.3
20260505121009 64 202 2.0 3.0 0.00 0.00 0.00 78 1018.4
20260505120506 63 120 1.0 1.0 0.00 0.00 0.00 79 1018.4
20260505120006 63 83 0.0 1.0 0.00 0.00 0.00 81 1018.3
20260505115501 62 189 2.0 3.0 0.00 0.00 0.00 83 1018.4
20260505114959 61 117 1.0 1.0 0.00 0.00 0.00 86 1018.3
20260505114455 60 179 1.0 2.0 0.00 0.00 0.00 88 1018.2
20260505113952 59 75 0.0 1.0 0.00 0.00 0.00 91 1018.1
20260505113449 58 77 0.0 0.0 0.00 0.00 0.00 93 1018.2
20260505112944 58 107 0.0 0.0 0.00 0.00 0.00 94 1018.1
20260505112441 57 67 0.0 0.0 0.00 0.00 0.00 95 1018.2
20260505111937 56 68 0.0 0.0 0.00 0.00 0.00 96 1018.2
20260505111431 55 68 0.0 0.0 0.00 0.00 0.00 96 1018.0
20260505110928 53 68 0.0 0.0 0.00 0.00 0.00 96 1017.9
20260505110425 52 67 0.0 0.0 0.00 0.00 0.00 95 1017.9
20260505101856 51 75 0.0 0.0 0.00 0.00 0.00 94 1017.5
20260505101351 51 75 0.0 0.0 0.00 0.00 0.00 94 1017.2
20260505100847 51 74 0.0 0.0 0.00 0.00 0.00 94 1017.4
20260505100344 51 74 0.0 0.0 0.00 0.00 0.00 94 1017.0
20260505095840 51 65 0.0 0.0 0.00 0.00 0.00 93 1017.0
20260505095337 51 122 0.0 0.0 0.00 0.00 0.00 93 1017.0
20260505094833 51 123 0.0 0.0 0.00 0.00 0.00 93 1017.0
20260505094331 52 123 0.0 0.0 0.00 0.00 0.00 93 1016.9
20260505093826 52 123 0.0 0.0 0.00 0.00 0.00 93 1016.8
20260505093324 52 123 0.0 0.0 0.00 0.00 0.00 93 1016.8
20260505092820 52 123 0.0 0.0 0.00 0.00 0.00 93 1016.9
20260505092319 52 123 0.0 0.0 0.00 0.00 0.00 92 1016.7
20260505091816 52 123 0.0 0.0 0.00 0.00 0.00 92 1016.8
20260505091314 53 123 0.0 0.0 0.00 0.00 0.00 92 1016.7
20260505090811 53 123 0.0 0.0 0.00 0.00 0.00 92 1016.8
20260505090310 53 123 0.0 0.0 0.00 0.00 0.00 92 1016.8
20260505085806 53 123 0.0 0.0 0.00 0.00 0.00 92 1016.5
20260505085305 53 123 0.0 0.0 0.00 0.00 0.00 91 1016.7
20260505084801 53 123 0.0 0.0 0.00 0.00 0.00 91 1016.7
20260505084300 53 123 0.0 0.0 0.00 0.00 0.00 90 1016.5
20260505083757 53 123 0.0 0.0 0.00 0.00 0.00 90 1016.5
20260505083253 53 123 0.0 0.0 0.00 0.00 0.00 90 1016.4
20260505082750 54 123 0.0 0.0 0.00 0.00 0.00 90 1016.5
20260505082248 53 123 0.0 0.0 0.00 0.00 0.00 89 1016.6
20260505081743 54 123 0.0 0.0 0.00 0.00 0.00 89 1016.5
20260505081240 54 123 0.0 0.0 0.00 0.00 0.00 88 1016.5
20260505080737 55 123 0.0 0.0 0.00 0.00 0.00 87 1016.7
20260505080232 55 123 0.0 0.0 0.00 0.00 0.00 87 1016.5
20260505075728 55 123 0.0 0.0 0.00 0.00 0.00 86 1016.5
20260505075226 56 125 1.0 1.0 0.00 0.00 0.00 86 1016.7
20260505074723 56 125 0.0 0.0 0.00 0.00 0.00 86 1016.5
20260505074220 56 183 1.0 2.0 0.00 0.00 0.00 86 1016.3
20260505073717 56 73 0.0 0.0 0.00 0.00 0.00 86 1016.3
20260505073215 56 75 0.0 0.0 0.00 0.00 0.00 85 1016.4
20260505072711 56 102 0.0 1.0 0.00 0.00 0.00 85 1016.4
20260505072208 56 184 1.0 2.0 0.00 0.00 0.00 85 1016.3
20260505071703 56 110 0.0 0.0 0.00 0.00 0.00 85 1016.5
20260505071201 56 132 2.0 2.0 0.00 0.00 0.00 85 1016.4
20260505070658 56 168 1.0 1.0 0.00 0.00 0.00 85 1016.3
20260505070154 56 91 0.0 0.0 0.00 0.00 0.00 85 1016.4
20260505065650 56 102 0.0 1.0 0.00 0.00 0.00 84 1016.5
20260505065147 56 141 1.0 1.0 0.00 0.00 0.00 84 1016.4
20260505064644 56 43 0.0 0.0 0.00 0.00 0.00 84 1016.6
20260505064142 56 90 1.0 1.0 0.00 0.00 0.00 84 1016.4
20260505063639 56 90 0.0 0.0 0.00 0.00 0.00 83 1016.5
20260505063135 57 84 0.0 0.0 0.00 0.00 0.00 83 1016.6
20260505062633 57 142 1.0 1.0 0.00 0.00 0.00 83 1016.5
20260505062130 57 125 1.0 1.0 0.00 0.00 0.00 83 1016.6
20260505061626 57 96 0.0 0.0 0.00 0.00 0.00 82 1016.6
20260505061124 57 88 0.0 0.0 0.00 0.00 0.00 82 1016.6
20260505060622 57 162 0.0 1.0 0.00 0.00 0.00 81 1016.6
20260505060118 58 77 0.0 0.0 0.00 0.00 0.00 80 1016.8
20260505055613 58 107 1.0 1.0 0.00 0.00 0.00 80 1017.0
20260505055110 58 112 1.0 1.0 0.00 0.00 0.00 80 1016.9
20260505054607 58 57 0.0 0.0 0.00 0.00 0.00 79 1017.0
20260505054106 58 100 0.0 0.0 0.00 0.00 0.00 79 1016.9
20260505053602 59 127 1.0 1.0 0.00 0.00 0.00 78 1017.0
20260505053059 59 93 0.0 1.0 0.00 0.00 0.00 77 1017.0
20260505052556 59 99 0.0 1.0 0.00 0.00 0.00 77 1016.9
20260505052054 59 200 2.0 2.0 0.00 0.00 0.00 76 1016.8
20260505051550 59 132 1.0 1.0 0.00 0.00 0.00 76 1016.9
20260505051048 59 176 1.0 2.0 0.00 0.00 0.00 76 1016.9
20260505050546 60 226 2.0 2.0 0.00 0.00 0.00 75 1016.8
20260505041514 60 163 2.0 3.0 0.00 0.00 0.00 73 1017.0
20260505041012 60 240 2.0 3.0 0.00 0.00 0.00 73 1017.2
20260505040509 60 164 1.0 2.0 0.00 0.00 0.00 73 1017.1
20260505040006 60 219 3.0 3.0 0.00 0.00 0.00 73 1017.0
20260505035501 60 153 2.0 3.0 0.00 0.00 0.00 73 1017.1
20260505034959 60 219 4.0 4.0 0.00 0.00 0.00 73 1017.1
20260505034455 60 142 2.0 2.0 0.00 0.00 0.00 73 1017.1
20260505033952 60 123 2.0 2.0 0.00 0.00 0.00 72 1017.1
20260505033449 60 134 1.0 1.0 0.00 0.00 0.00 72 1017.1
20260505032947 61 122 1.0 1.0 0.00 0.00 0.00 72 1017.2
20260505032444 60 187 2.0 2.0 0.00 0.00 0.00 72 1017.1
20260505031940 61 190 2.0 2.0 0.00 0.00 0.00 72 1017.1
20260505031437 60 167 1.0 2.0 0.00 0.00 0.00 72 1016.9
20260505030934 60 171 2.0 2.0 0.00 0.00 0.00 73 1017.2
20260505030430 60 170 1.0 1.0 0.00 0.00 0.00 73 1017.3
20260505025926 60 190 2.0 2.0 0.00 0.00 0.00 73 1017.3
20260505025424 60 178 2.0 2.0 0.00 0.00 0.00 74 1017.3
20260505024923 60 101 2.0 2.0 0.00 0.00 0.00 74 1017.3
20260505024420 60 210 1.0 1.0 0.00 0.00 0.00 74 1017.3
20260505023917 60 182 1.0 2.0 0.00 0.00 0.00 73 1017.5
20260505023414 60 141 1.0 2.0 0.00 0.00 0.00 73 1017.5
20260505022911 60 124 0.0 0.0 0.00 0.00 0.00 73 1017.5
20260505022408 61 117 0.0 0.0 0.00 0.00 0.00 72 1017.4
20260505021905 61 117 0.0 0.0 0.00 0.00 0.00 71 1017.2
20260505021401 62 200 2.0 2.0 0.00 0.00 0.00 71 1017.1
20260505020857 62 228 2.0 2.0 0.00 0.00 0.00 70 1017.2
20260505020353 62 94 0.0 0.0 0.00 0.00 0.00 70 1017.3
20260505015850 62 151 0.0 0.0 0.00 0.00 0.00 69 1017.3
20260505015347 63 204 1.0 2.0 0.00 0.00 0.00 68 1017.2
20260505014844 63 204 3.0 4.0 0.00 0.00 0.00 68 1017.1
20260505014341 63 201 3.0 3.0 0.00 0.00 0.00 67 1017.2
20260505013837 63 292 2.0 2.0 0.00 0.00 0.00 67 1017.2
20260505013334 64 206 2.0 2.0 0.00 0.00 0.00 66 1017.2
20260505012834 64 211 4.0 7.0 0.00 0.00 0.00 66 1017.2
20260505012331 64 199 2.0 3.0 0.00 0.00 0.00 66 1016.9
20260505011826 64 104 1.0 1.0 0.00 0.00 0.00 65 1016.9
20260505011323 64 196 5.0 7.0 0.00 0.00 0.00 65 1016.8
20260505010819 64 210 5.0 6.0 0.00 0.00 0.00 65 1016.7
20260505010315 64 215 5.0 7.0 0.00 0.00 0.00 65 1016.8
20260505005812 64 226 3.0 6.0 0.00 0.00 0.00 65 1016.8
20260505005309 64 199 4.0 6.0 0.00 0.00 0.00 65 1016.4
20260505004806 65 201 6.0 8.0 0.00 0.00 0.00 65 1016.5
20260505004302 65 148 6.0 7.0 0.00 0.00 0.00 65 1016.5
20260505003800 65 195 5.0 6.0 0.00 0.00 0.00 65 1016.4